Melfa, VA

7:25 PM EST on January 20, 2017 (GMT -0500)
Accomack County

Weather History for KMFV - October, 2011

Change the Weather History Date:

Friday, October 28, 2011

  Actual Average (KWAL) Record (KWAL)
Temperature  
Mean Temperature 48 °F -  
Max Temperature 51 °F 62 °F 81 °F (2014)
Min Temperature 44 °F 43 °F 31 °F (1976)
Degree Days  
Heating Degree Days 18    
Moisture  
Dew Point 38 °F    
Average Humidity 74    
Maximum Humidity 87    
Minimum Humidity 66    
Precipitation  
Precipitation 0.00 in - - ()
Sea Level Pressure  
Sea Level Pressure 30.14 in    
Wind  
Wind Speed 11 mph (NNE)    
Max Wind Speed 16 mph    
Max Gust Speed 24 mph    
Visibility 10 miles    
Events Rain    
Averages and records for this station are not official NWS values.
T = Trace of Precipitation, MM = Missing Value Source: NWS Daily Summary

Daily Weather History Graph

Daily Weather History Graph

Search for Another Location

Airport or City:

Trip Planner

Search our weather history database for the weather conditions in past years. The results will help you decide how hot, cold, wet, or windy it might be!

Date:

Astronomy

Oct. 28, 2011 Rise Set
Actual Time 7:23 AM EDT 6:09 PM EDT
Civil Twilight 6:56 AM EDT 6:36 PM EDT
Nautical Twilight 6:26 AM EDT 7:07 PM EDT
Astronomical Twilight 5:55 AM EDT 7:37 PM EDT
Moon 9:33 AM EDT (10/28) 7:33 PM EDT (10/28)
Length of Visible Light 11h 39m
Length of Day
10h 45m
Waxing Crescent, 5% of the Moon is Illuminated
Oct 28
Waxing Crescent
Nov 2
First Quarter
Nov 10
Full
Nov 18
Last Quarter
Nov 25
New

Hourly Weather History & Observations

Time (EDT) Temp. Windchill Dew Point Humidity Pressure Visibility Wind Dir Wind Speed Gust Speed Precip Events Conditions
12:15 AM 51.8 °F - 46.4 °F 82% 29.96 in 10.0 mi North 15.0 mph 23.0 mph N/A   Light Drizzle
12:55 AM 51.8 °F - 44.6 °F 76% 29.99 in 10.0 mi North 15.0 mph 24.2 mph N/A Rain Light Rain
1:15 AM 50.0 °F - 42.8 °F 76% 30.00 in 10.0 mi North 13.8 mph 24.2 mph N/A Rain Light Rain
1:35 AM 50.0 °F - 42.8 °F 76% 30.01 in 10.0 mi North 16.1 mph 24.2 mph N/A   Overcast
1:55 AM 48.2 °F - 41.0 °F 76% 30.03 in 10.0 mi North 13.8 mph 21.9 mph N/A   Overcast
2:15 AM 48.2 °F - 39.2 °F 71% 30.04 in 10.0 mi North 11.5 mph 24.2 mph N/A   Overcast
2:35 AM 48.2 °F - 39.2 °F 71% 30.04 in 10.0 mi North 12.7 mph 21.9 mph N/A Rain Light Rain
2:55 AM 46.4 °F 40.4 °F 39.2 °F 76% 30.05 in 10.0 mi North 13.8 mph 19.6 mph N/A   Overcast
3:15 AM 46.4 °F 42.4 °F 39.2 °F 76% 30.05 in 10.0 mi North 8.1 mph - N/A Rain Light Rain
3:35 AM 46.4 °F 41.9 °F 39.2 °F 76% 30.06 in 10.0 mi North 9.2 mph 19.6 mph N/A   Light Drizzle
3:55 AM 46.4 °F 42.4 °F 39.2 °F 76% 30.07 in 10.0 mi North 8.1 mph 20.7 mph N/A   Overcast
4:15 AM 46.4 °F 41.5 °F 37.4 °F 71% 30.08 in 10.0 mi North 10.4 mph - N/A Rain Light Rain
4:35 AM 46.4 °F 41.9 °F 37.4 °F 71% 30.08 in 10.0 mi North 9.2 mph 16.1 mph N/A   Drizzle
4:55 AM 46.4 °F 41.9 °F 37.4 °F 71% 30.10 in 10.0 mi North 9.2 mph - N/A   Light Drizzle
5:15 AM 44.6 °F 40.2 °F 37.4 °F 76% 30.11 in 10.0 mi North 8.1 mph - N/A   Overcast
5:35 AM 46.4 °F 42.4 °F 37.4 °F 71% 30.11 in 10.0 mi NNE 8.1 mph - N/A   Overcast
6:15 AM 44.6 °F 40.7 °F 37.4 °F 76% 30.12 in 10.0 mi NNE 6.9 mph 16.1 mph N/A   Overcast
6:35 AM 44.6 °F 40.2 °F 37.4 °F 76% 30.14 in 10.0 mi NNE 8.1 mph - N/A   Overcast
6:55 AM 44.6 °F 39.7 °F 35.6 °F 71% 30.14 in 10.0 mi NNE 9.2 mph 17.3 mph N/A   Overcast
7:15 AM 44.6 °F 38.4 °F 35.6 °F 71% 30.14 in 10.0 mi NNE 12.7 mph - N/A   Overcast
7:35 AM 44.6 °F 39.7 °F 35.6 °F 71% 30.15 in 10.0 mi North 9.2 mph - N/A   Overcast
7:55 AM 44.6 °F 39.7 °F 35.6 °F 71% 30.16 in 10.0 mi North 9.2 mph 16.1 mph N/A   Overcast
8:15 AM 44.6 °F 38.8 °F 35.6 °F 71% 30.17 in 10.0 mi North 11.5 mph 17.3 mph N/A   Overcast
8:35 AM 44.6 °F 39.2 °F 35.6 °F 71% 30.18 in 10.0 mi NNE 10.4 mph 18.4 mph N/A   Overcast
8:55 AM 44.6 °F 39.7 °F 35.6 °F 71% 30.18 in 10.0 mi North 9.2 mph 16.1 mph N/A   Overcast
9:15 AM 44.6 °F 41.4 °F 35.6 °F 71% 30.19 in 10.0 mi NNE 5.8 mph 9.2 mph N/A   Overcast
9:35 AM 44.6 °F 40.2 °F 35.6 °F 71% 30.19 in 10.0 mi NNE 8.1 mph 16.1 mph N/A   Overcast
9:55 AM 44.6 °F 38.4 °F 35.6 °F 71% 30.19 in 10.0 mi NNE 12.7 mph 17.3 mph N/A Rain Light Rain
10:15 AM 44.6 °F 40.2 °F 35.6 °F 71% 30.20 in 10.0 mi NNE 8.1 mph - N/A   Overcast
10:35 AM 44.6 °F 39.7 °F 35.6 °F 71% 30.20 in 10.0 mi NNE 9.2 mph - N/A   Overcast
11:15 AM 44.6 °F 40.7 °F 35.6 °F 71% 30.20 in 10.0 mi NNE 6.9 mph - N/A   Overcast
11:35 AM 44.6 °F 40.7 °F 37.4 °F 76% 30.21 in 10.0 mi North 6.9 mph - N/A   Drizzle
11:55 AM 44.6 °F 40.7 °F 35.6 °F 71% 30.21 in 10.0 mi North 6.9 mph - N/A   Light Drizzle
12:15 PM 44.6 °F 40.7 °F 35.6 °F 71% 30.20 in 10.0 mi North 6.9 mph - N/A   Light Drizzle
12:35 PM 44.6 °F 39.7 °F 35.6 °F 71% 30.20 in 10.0 mi North 9.2 mph - N/A Rain Light Rain
12:55 PM 44.6 °F 42.2 °F 37.4 °F 76% 30.19 in 10.0 mi NNE 4.6 mph - N/A   Drizzle
1:15 PM 46.4 °F 43.5 °F 37.4 °F 71% 30.19 in 10.0 mi NNE 5.8 mph - N/A   Light Drizzle
1:35 PM 46.4 °F 41.9 °F 37.4 °F 71% 30.18 in 10.0 mi NNE 9.2 mph - N/A Rain Light Rain
1:55 PM 46.4 °F 41.9 °F 37.4 °F 71% 30.18 in 10.0 mi North 9.2 mph - N/A Rain Light Rain
2:15 PM 46.4 °F 42.9 °F 35.6 °F 66% 30.18 in 10.0 mi NNE 6.9 mph - N/A Rain Light Rain
2:35 PM 46.4 °F 41.9 °F 37.4 °F 71% 30.18 in 10.0 mi NNE 9.2 mph - N/A Rain Light Rain
2:55 PM 46.4 °F 42.9 °F 37.4 °F 71% 30.18 in 10.0 mi North 6.9 mph - N/A   Light Drizzle
3:15 PM 46.4 °F 43.5 °F 37.4 °F 71% 30.18 in 10.0 mi North 5.8 mph - N/A Rain Rain
3:35 PM 46.4 °F 43.5 °F 39.2 °F 76% 30.18 in 10.0 mi North 5.8 mph - N/A   Light Drizzle
3:55 PM 46.4 °F 43.5 °F 39.2 °F 76% 30.18 in 10.0 mi NNE 5.8 mph - N/A   Overcast
4:15 PM 46.4 °F 43.5 °F 39.2 °F 76% 30.17 in 10.0 mi North 5.8 mph - N/A   Overcast
4:35 PM 46.4 °F 42.9 °F 39.2 °F 76% 30.18 in 10.0 mi North 6.9 mph - N/A Rain Light Rain
4:55 PM 46.4 °F 43.5 °F 39.2 °F 76% 30.17 in 10.0 mi North 5.8 mph - N/A   Light Drizzle
5:15 PM 46.4 °F 43.5 °F 39.2 °F 76% 30.17 in 10.0 mi North 5.8 mph - N/A   Overcast
5:35 PM 46.4 °F 42.9 °F 41.0 °F 81% 30.16 in 10.0 mi NNE 6.9 mph - N/A   Overcast
5:55 PM 46.4 °F 42.9 °F 41.0 °F 81% 30.17 in 10.0 mi North 6.9 mph - N/A Rain Light Rain
6:35 PM 46.4 °F 42.9 °F 42.8 °F 87% 30.16 in 10.0 mi NNE 6.9 mph - N/A   Light Drizzle
6:55 PM 46.4 °F 42.4 °F 42.8 °F 87% 30.18 in 10.0 mi NNE 8.1 mph - N/A   Overcast
7:15 PM 46.4 °F 42.4 °F 42.8 °F 87% 30.16 in 10.0 mi NE 8.1 mph - N/A   Overcast
7:35 PM 46.4 °F 42.9 °F 41.0 °F 81% 30.17 in 10.0 mi NE 6.9 mph - N/A   Overcast
7:55 PM 46.4 °F 44.3 °F 41.0 °F 81% 30.16 in 10.0 mi NE 4.6 mph - N/A   Overcast
8:15 PM 46.4 °F 44.3 °F 41.0 °F 81% 30.16 in 10.0 mi NNE 4.6 mph - N/A   Overcast
8:35 PM 46.4 °F 43.5 °F 41.0 °F 81% 30.15 in 10.0 mi NNE 5.8 mph - N/A   Overcast
9:15 PM 46.4 °F 42.9 °F 41.0 °F 81% 30.14 in 10.0 mi NNE 6.9 mph - N/A   Overcast
9:35 PM 46.4 °F 43.5 °F 41.0 °F 81% 30.14 in 10.0 mi NNE 5.8 mph - N/A   Overcast
10:15 PM 46.4 °F 42.9 °F 41.0 °F 81% 30.14 in 10.0 mi NNE 6.9 mph - N/A   Overcast
10:35 PM 46.4 °F 44.3 °F 42.8 °F 87% 30.13 in 7.0 mi NNE 4.6 mph - N/A   Light Drizzle
10:55 PM 46.4 °F 43.5 °F 42.8 °F 87% 30.12 in 10.0 mi NNE 5.8 mph - N/A Rain Light Rain
11:15 PM 46.4 °F 43.5 °F 42.8 °F 87% 30.11 in 10.0 mi North 5.8 mph - N/A Rain Light Rain
11:35 PM 46.4 °F 44.3 °F 42.8 °F 87% 30.11 in 10.0 mi North 4.6 mph - N/A   Overcast
11:55 PM 46.4 °F 45.2 °F 42.8 °F 87% 30.09 in 10.0 mi NNE 3.5 mph - N/A   Overcast